User: anonymous   Login
Location: Newark
(48.9000°N, 0.7000°E)
Time: 19:59:26
(UTC+00:00)
Language:

ISS - Orbit

View from above orbital plane
View from above orbital plane
View from above satellite
View from above satellite

Ground track
Ground track

The orbit data is extracted from the following two-line orbital elements,

1 25544U 98067A   20294.75894544  .00000856  00000-0  23437-4 0  9995
2 25544  51.6440  87.1310 0001440  50.6601  37.8092 15.49317682251484
Epoch (UTC): 20 October 2020 18:12:52
Eccentricity: 0.0001440
inclination: 51.6440°
perigee height: 418 km
apogee height: 420 km
right ascension of ascending node: 87.1310°
argument of perigee: 50.6601°
revolutions per day: 15.49317682
mean anomaly at epoch: 37.8092°
orbit number at epoch: 25148

The dashed part of the orbit path shows where the satellite is in the earth's shadow,  

DLR